Tracking 28096 objects as of 28-Sep-2023
HD Live streaming from Space Station
objects crossing your sky now

ANNA 1B

Track ANNA 1B now!
10-day predictions
ANNA 1B is classified as:


NORAD ID: 446
Int'l Code: 1962-060A
Perigee: 1,081.4 km
Apogee: 1,186.5 km
Inclination: 50.1 °
Period: 107.8 minutes
Semi major axis: 7504 km
RCS: 0.8414 m2 (medium)
Launch date: October 31, 1962
Source: United States (US)
Launch site: AIR FORCE EASTERN TEST RANGE (AFETR)
Your satellite tracking list
Your tracking list is empty




NASA's NSSDC Master Catalog

Two Line Element Set (TLE):
1 00446U 62060A   23270.49726778 -.00000080  00000-0  89314-4 0  9990
2 00446  50.1438 346.7870 0070065 305.9916 149.2660 13.35306775970951
Source of the keplerian elements: AFSPC